GW0353 Weather Reports


Display with metric or nautical units.
time (UTC)temp
F
wind
direction
speed
MPH
gust
MPH
rain 1hr
in
rain 24hr
in
rain mn
in
humidity
%
barometer
mb
20260904071606 49 84 4.0 9.0 0.00 0.00 0.00 63 1018.2
20260904071057 49 71 6.0 9.0 0.00 0.00 0.00 65 1018.4
20260904070600 49 104 2.0 8.0 0.00 0.00 0.00 64 1018.2
20260904070108 49 59 4.0 7.0 0.00 0.00 0.00 63 1018.2
20260904065557 49 107 4.0 8.0 0.00 0.00 0.00 63 1018.3
20260904065057 49 124 2.0 11.0 0.00 0.00 0.00 63 1018.2
20260904064608 50 82 5.0 11.0 0.00 0.00 0.00 63 1018.2
20260904064100 49 86 5.0 11.0 0.00 0.00 0.00 64 1018.3
20260904063559 49 158 4.0 9.0 0.00 0.00 0.00 63 1018.2
20260904063110 49 93 4.0 8.0 0.00 0.00 0.00 63 1018.1
20260904062557 50 122 4.0 9.0 0.00 0.00 0.00 63 1018.2
20260904062057 50 98 6.0 9.0 0.00 0.00 0.00 63 1017.9
20260904061605 50 68 4.0 9.0 0.00 0.00 0.00 63 1017.8
20260904061057 50 115 4.0 9.0 0.00 0.00 0.00 63 1017.9
20260904060600 50 131 4.0 9.0 0.00 0.00 0.00 64 1017.9
20260904060131 50 127 1.0 7.0 0.00 0.00 0.00 62 1017.9
20260904055640 51 21 2.0 12.0 0.00 0.00 0.00 62 1017.8
20260904055058 51 110 2.0 12.0 0.00 0.00 0.00 62 1017.9
20260904054637 50 127 5.0 11.0 0.00 0.00 0.00 63 1017.8
20260904054100 50 110 4.0 11.0 0.00 0.00 0.00 63 1018.0
20260904053559 50 42 4.0 9.0 0.00 0.00 0.00 65 1018.1
20260904053109 51 66 1.0 6.0 0.00 0.00 0.00 66 1018.1
20260904052559 51 126 0.0 6.0 0.00 0.00 0.00 66 1018.1
20260904052059 51 79 4.0 6.0 0.00 0.00 0.00 67 1018.0
20260904051607 50 37 2.0 5.0 0.00 0.00 0.00 66 1018.1
20260904051101 51 308 2.0 6.0 0.00 0.00 0.00 67 1017.9
20260904050559 51 0 2.0 6.0 0.00 0.00 0.00 67 1018.2
20260904045559 51 30 0.0 5.0 0.00 0.00 0.00 66 1018.3
20260904045100 51 0 1.0 9.0 0.00 0.00 0.00 66 1018.4
20260904044606 51 312 3.0 9.0 0.00 0.00 0.00 66 1018.2
20260904044100 51 181 1.0 9.0 0.00 0.00 0.00 65 1018.4
20260904043559 51 122 3.0 7.0 0.00 0.00 0.00 66 1018.2
20260904043107 51 0 1.0 3.0 0.00 0.00 0.00 67 1018.3
20260904042559 51 0 0.0 1.0 0.00 0.00 0.00 66 1018.4
20260904042100 51 0 0.0 3.0 0.00 0.00 0.00 66 1018.4
20260904041609 52 0 1.0 3.0 0.00 0.00 0.00 65 1018.4
20260904041059 52 0 0.0 2.0 0.00 0.00 0.00 63 1018.4
20260904040559 53 0 0.0 8.0 0.00 0.00 0.00 64 1018.3
20260904040109 53 0 0.0 8.0 0.00 0.00 0.00 63 1018.2
20260904035600 53 359 1.0 8.0 0.00 0.00 0.00 63 1018.3
20260904035058 54 0 0.0 4.0 0.00 0.00 0.00 61 1018.3
20260904034603 54 0 0.0 4.0 0.00 0.00 0.00 60 1018.2
20260904034101 54 119 0.0 6.0 0.00 0.00 0.00 59 1018.0
20260904033602 54 0 2.0 6.0 0.00 0.00 0.00 58 1017.9
20260904033108 55 37 2.0 6.0 0.00 0.00 0.00 60 1017.9
20260904032600 55 358 2.0 6.0 0.00 0.00 0.00 59 1017.9
20260904032059 55 52 2.0 9.0 0.00 0.00 0.00 56 1017.9
20260904031607 55 158 1.0 9.0 0.00 0.00 0.00 55 1017.9
20260904031057 55 63 2.0 9.0 0.00 0.00 0.00 55 1017.8
20260904030558 56 89 3.0 9.0 0.00 0.00 0.00 55 1017.7
20260904030104 56 37 2.0 6.0 0.00 0.00 0.00 53 1017.9
20260904025557 56 98 1.0 6.0 0.00 0.00 0.00 55 1017.8
20260904025056 57 33 1.0 11.0 0.00 0.00 0.00 56 1017.6
20260904024604 57 218 5.0 17.0 0.00 0.00 0.00 54 1017.7
20260904024100 57 88 4.0 17.0 0.00 0.00 0.00 52 1017.5
20260904023557 58 58 10.0 17.0 0.00 0.00 0.00 49 1017.4
20260904023108 59 53 3.0 8.0 0.00 0.00 0.00 52 1017.4
20260904022557 59 33 4.0 13.0 0.00 0.00 0.00 52 1017.3
20260904022057 60 12 4.0 13.0 0.00 0.00 0.00 51 1017.3
20260904021608 61 56 2.0 15.0 0.00 0.00 0.00 49 1017.1
20260904021057 62 163 6.0 15.0 0.00 0.00 0.00 44 1017.0
20260904020558 62 7 5.0 13.0 0.00 0.00 0.00 43 1017.1
20260904020106 63 79 7.0 15.0 0.00 0.00 0.00 42 1016.8
20260904015557 64 53 7.0 15.0 0.00 0.00 0.00 39 1016.8
20260904015057 64 56 4.0 8.0 0.00 0.00 0.00 38 1016.6
20260904014621 65 70 0.0 4.0 0.00 0.00 0.00 36 1016.7
20260904014059 66 218 0.0 3.0 0.00 0.00 0.00 35 1016.5
20260904013557 67 0 0.0 3.0 0.00 0.00 0.00 34 1016.5
20260904013122 67 255 0.0 6.0 0.00 0.00 0.00 33 1016.5
20260904012558 67 0 1.0 12.0 0.00 0.00 0.00 34 1016.4
20260904012057 67 163 2.0 12.0 0.00 0.00 0.00 36 1016.6
20260904011606 68 185 3.0 17.0 0.00 0.00 0.00 35 1016.7
20260904011057 69 131 9.0 17.0 0.00 0.00 0.00 26 1016.8
20260904010557 69 173 4.0 14.0 0.00 0.00 0.00 32 1016.8
20260904010116 69 248 4.0 13.0 0.00 0.00 0.00 30 1016.9
20260904005557 70 244 3.0 9.0 0.00 0.00 0.00 31 1017.0
20260904005100 70 232 2.0 13.0 0.00 0.00 0.00 33 1016.9
20260904004625 70 229 3.0 13.0 0.00 0.00 0.00 31 1017.0
20260904004058 70 161 3.0 11.0 0.00 0.00 0.00 30 1017.0
20260904003557 70 212 4.0 13.0 0.00 0.00 0.00 30 1017.1
20260904003133 70 323 4.0 13.0 0.00 0.00 0.00 32 1017.1
20260904002600 70 259 4.0 10.0 0.00 0.00 0.00 29 1016.9
20260904002057 70 197 3.0 10.0 0.00 0.00 0.00 30 1017.1
20260904001602 70 313 6.0 16.0 0.00 0.00 0.00 29 1017.2
20260904001057 69 215 8.0 16.0 0.00 0.00 0.00 30 1017.0
20260904000557 70 139 8.0 17.0 0.00 0.00 0.00 29 1017.2
20260904000106 70 161 7.0 17.0 0.00 0.00 0.00 30 1017.2
20260903235557 71 167 4.0 11.0 0.00 0.00 0.00 31 1017.2
20260903235059 70 235 5.0 12.0 0.00 0.00 0.00 30 1017.1
20260903234607 71 231 4.0 13.0 0.00 0.00 0.00 29 1017.2
20260903234059 70 190 6.0 14.0 0.00 0.00 0.00 30 1017.1
20260903233602 70 187 4.0 14.0 0.00 0.00 0.00 31 1017.1
20260903233107 70 167 7.0 18.0 0.00 0.00 0.00 31 1017.1
20260903232559 70 153 10.0 19.0 0.00 0.00 0.00 30 1017.0
20260903232059 71 139 7.0 19.0 0.00 0.00 0.00 28 1017.1
20260903231611 71 160 10.0 19.0 0.00 0.00 0.00 29 1017.3
20260903231058 72 159 8.0 17.0 0.00 0.00 0.00 28 1017.3
20260903230558 73 121 6.0 13.0 0.00 0.00 0.00 29 1017.2
20260903230106 73 247 4.0 12.0 0.00 0.00 0.00 28 1017.2
20260903225558 73 151 3.0 11.0 0.00 0.00 0.00 28 1017.3
20260903225059 74 160 3.0 11.0 0.00 0.00 0.00 27 1017.4
20260903224609 74 290 2.0 11.0 0.00 0.00 0.00 28 1017.4
20260903224058 75 150 0.0 4.0 0.00 0.00 0.00 26 1017.4
20260903223602 74 252 1.0 4.0 0.00 0.00 0.00 28 1017.3
20260903223119 73 323 1.0 4.0 0.00 0.00 0.00 28 1017.4
20260903222559 73 18 1.0 4.0 0.00 0.00 0.00 25 1017.4
20260903222059 73 39 1.0 8.0 0.00 0.00 0.00 26 1017.7
20260903221621 73 250 2.0 8.0 0.00 0.00 0.00 26 1017.8
20260903221058 73 61 3.0 8.0 0.00 0.00 0.00 25 1017.7
20260903220558 72 342 3.0 6.0 0.00 0.00 0.00 25 1017.9
20260903220105 72 9 2.0 8.0 0.00 0.00 0.00 25 1017.8
20260903215558 72 0 4.0 12.0 0.00 0.00 0.00 25 1017.8
20260903215058 72 309 4.0 12.0 0.00 0.00 0.00 25 1017.8
20260903214603 72 86 1.0 10.0 0.00 0.00 0.00 26 1017.8
20260903214059 71 42 5.0 14.0 0.00 0.00 0.00 26 1017.9
20260903213601 71 123 4.0 14.0 0.00 0.00 0.00 25 1017.9
20260903213107 71 54 6.0 14.0 0.00 0.00 0.00 25 1017.8
20260903212559 70 139 9.0 14.0 0.00 0.00 0.00 26 1017.9
20260903212059 71 162 7.0 13.0 0.00 0.00 0.00 26 1017.9
20260903211612 71 97 4.0 13.0 0.00 0.00 0.00 25 1017.7
20260903211058 71 214 6.0 13.0 0.00 0.00 0.00 27 1017.9
20260903210559 70 130 4.0 12.0 0.00 0.00 0.00 25 1017.9
20260903210101 70 93 5.0 15.0 0.00 0.00 0.00 26 1018.1
20260903205559 69 53 6.0 15.0 0.00 0.00 0.00 26 1018.2
20260903205059 69 86 6.0 15.0 0.00 0.00 0.00 27 1018.1
20260903204605 69 101 7.0 14.0 0.00 0.00 0.00 27 1018.1
20260903204058 69 108 6.0 17.0 0.00 0.00 0.00 27 1018.2
20260903203558 69 179 7.0 17.0 0.00 0.00 0.00 27 1018.2
20260903203107 69 148 6.0 17.0 0.00 0.00 0.00 26 1018.2
20260903202559 69 113 7.0 16.0 0.00 0.00 0.00 26 1018.2
20260903202059 69 143 6.0 16.0 0.00 0.00 0.00 27 1018.2
20260903201606 69 350 5.0 20.0 0.00 0.00 0.00 26 1018.4
20260903201058 69 51 6.0 20.0 0.00 0.00 0.00 26 1018.4
20260903200558 69 82 7.0 14.0 0.00 0.00 0.00 27 1018.4
20260903200105 68 51 7.0 17.0 0.00 0.00 0.00 27 1018.5
20260903195558 68 121 6.0 17.0 0.00 0.00 0.00 27 1018.7
20260903195058 68 145 9.0 17.0 0.00 0.00 0.00 27 1018.8
20260903194603 68 101 8.0 15.0 0.00 0.00 0.00 27 1018.9
20260903194058 69 118 7.0 13.0 0.00 0.00 0.00 27 1018.9
20260903193558 69 41 4.0 11.0 0.00 0.00 0.00 27 1018.9
20260903193109 68 95 5.0 11.0 0.00 0.00 0.00 27 1018.9
20260903192559 68 78 7.0 11.0 0.00 0.00 0.00 27 1019.0
20260903192058 68 149 3.0 11.0 0.00 0.00 0.00 28 1019.2
20260903191605 68 114 4.0 18.0 0.00 0.00 0.00 27 1019.3
20260903191059 68 112 7.0 18.0 0.00 0.00 0.00 27 1019.3
20260903190559 68 70 5.0 12.0 0.00 0.00 0.00 27 1019.4
20260903190111 69 101 4.0 12.0 0.00 0.00 0.00 27 1019.3
20260903185558 69 99 4.0 12.0 0.00 0.00 0.00 28 1019.4
20260903185058 69 101 5.0 12.0 0.00 0.00 0.00 27 1019.5
20260903184607 70 114 3.0 7.0 0.00 0.00 0.00 26 1019.5
20260903184059 71 8 3.0 6.0 0.00 0.00 0.00 26 1019.5
20260903183558 71 323 2.0 4.0 0.00 0.00 0.00 25 1019.6
20260903183108 72 63 1.0 4.0 0.00 0.00 0.00 27 1019.6
20260903182559 71 328 1.0 5.0 0.00 0.00 0.00 26 1019.8
20260903182059 69 288 0.0 6.0 0.00 0.00 0.00 28 1019.9
20260903181605 69 298 1.0 6.0 0.00 0.00 0.00 28 1019.8
20260903181103 69 67 1.0 6.0 0.00 0.00 0.00 27 1019.9
20260903180558 69 303 2.0 6.0 0.00 0.00 0.00 28 1019.9
20260903180110 69 312 1.0 4.0 0.00 0.00 0.00 27 1019.9
20260903175558 68 307 2.0 4.0 0.00 0.00 0.00 28 1020.0
20260903175058 69 321 1.0 5.0 0.00 0.00 0.00 28 1019.8
20260903174620 69 28 1.0 5.0 0.00 0.00 0.00 27 1019.9
20260903174057 68 332 1.0 4.0 0.00 0.00 0.00 28 1019.9
20260903173557 68 27 0.0 4.0 0.00 0.00 0.00 29 1019.9
20260903173110 68 317 0.0 3.0 0.00 0.00 0.00 29 1019.9
20260903172558 67 72 0.0 4.0 0.00 0.00 0.00 29 1020.0
20260903172058 66 280 1.0 4.0 0.00 0.00 0.00 29 1020.0
20260903171605 66 349 1.0 4.0 0.00 0.00 0.00 29 1020.0
20260903171057 66 66 0.0 2.0 0.00 0.00 0.00 28 1020.1
20260903170600 65 272 0.0 4.0 0.00 0.00 0.00 29 1020.1
20260903170109 64 0 0.0 4.0 0.00 0.00 0.00 29 1020.2
20260903165557 64 32 0.0 6.0 0.00 0.00 0.00 30 1020.2
20260903165057 63 0 1.0 6.0 0.00 0.00 0.00 31 1020.2
20260903164608 62 349 1.0 4.0 0.00 0.00 0.00 31 1020.2
20260903164057 62 37 0.0 4.0 0.00 0.00 0.00 31 1020.2
20260903163556 61 42 2.0 4.0 0.00 0.00 0.00 31 1020.3
20260903163105 61 103 0.0 4.0 0.00 0.00 0.00 32 1020.3
20260903162559 60 74 1.0 4.0 0.00 0.00 0.00 31 1020.4
20260903162057 60 86 0.0 4.0 0.00 0.00 0.00 32 1020.4
20260903161607 60 58 1.0 4.0 0.00 0.00 0.00 33 1020.6
20260903161059 60 42 0.0 3.0 0.00 0.00 0.00 34 1020.5
20260903160557 58 0 0.0 3.0 0.00 0.00 0.00 34 1020.7
20260903160111 58 117 0.0 3.0 0.00 0.00 0.00 37 1020.9
20260903155558 58 54 0.0 3.0 0.00 0.00 0.00 38 1020.8
20260903155057 58 0 1.0 3.0 0.00 0.00 0.00 39 1021.0
20260903154607 58 53 0.0 2.0 0.00 0.00 0.00 45 1021.2
20260903154058 56 47 1.0 2.0 0.00 0.00 0.00 41 1021.1
20260903153557 56 51 0.0 2.0 0.00 0.00 0.00 46 1021.3
20260903153111 55 41 0.0 2.0 0.00 0.00 0.00 53 1021.2
20260903152600 54 0 0.0 1.0 0.00 0.00 0.00 55 1021.1
20260903152101 53 0 0.0 1.0 0.00 0.00 0.00 58 1021.1
20260903151606 53 0 0.0 1.0 0.00 0.00 0.00 60 1021.2
20260903151100 52 0 0.0 1.0 0.00 0.00 0.00 60 1021.1
20260903150557 52 0 0.0 0.0 0.00 0.00 0.00 58 1021.3
20260903150109 52 0 0.0 0.0 0.00 0.00 0.00 57 1021.3
20260903145557 52 0 0.0 0.0 0.00 0.00 0.00 54 1021.3
20260903145057 51 0 0.0 0.0 0.00 0.00 0.00 53 1021.4
20260903144610 49 0 0.0 0.0 0.00 0.00 0.00 55 1021.4
20260903144058 46 0 0.0 0.0 0.00 0.00 0.00 58 1021.3
20260903143558 44 0 0.0 0.0 0.00 0.00 0.00 59 1021.1
20260903143114 43 0 0.0 1.0 0.00 0.00 0.00 63 1021.0
20260903142559 41 0 0.0 1.0 0.00 0.00 0.00 65 1021.0
20260903142058 41 0 0.0 4.0 0.00 0.00 0.00 64 1020.9
20260903141614 40 0 0.0 4.0 0.00 0.00 0.00 67 1021.0
20260903141057 38 180 2.0 4.0 0.00 0.00 0.00 64 1020.9
20260903140558 38 0 0.0 2.0 0.00 0.00 0.00 68 1020.9
20260903140107 37 191 0.0 2.0 0.00 0.00 0.00 67 1020.8
20260903135557 37 0 0.0 2.0 0.00 0.00 0.00 69 1020.9
20260903135057 38 0 0.0 2.0 0.00 0.00 0.00 66 1020.8
20260903134620 38 0 0.0 1.0 0.00 0.00 0.00 66 1020.7
20260903134058 38 0 0.0 1.0 0.00 0.00 0.00 66 1020.6
20260903133558 38 0 0.0 1.0 0.00 0.00 0.00 66 1020.6
20260903133112 38 0 0.0 1.0 0.00 0.00 0.00 69 1020.5
20260903132600 38 0 0.0 1.0 0.00 0.00 0.00 65 1020.7
20260903132057 38 0 0.0 1.0 0.00 0.00 0.00 65 1020.7
20260903131605 38 0 0.0 0.0 0.00 0.00 0.00 66 1020.6
20260903131100 39 0 0.0 1.0 0.00 0.00 0.00 65 1020.6
20260903130558 39 0 0.0 1.0 0.00 0.00 0.00 64 1020.6
20260903130129 39 0 0.0 1.0 0.00 0.00 0.00 66 1020.7
20260903125557 38 0 0.0 2.0 0.00 0.00 0.00 66 1020.6
20260903125058 38 0 1.0 2.0 0.00 0.00 0.00 66 1020.6
20260903124612 39 0 0.0 0.0 0.00 0.00 0.00 65 1020.5
20260903124057 39 0 0.0 0.0 0.00 0.00 0.00 67 1020.4
20260903123557 39 0 0.0 1.0 0.00 0.00 0.00 66 1020.4
20260903123110 39 0 0.0 1.0 0.00 0.00 0.00 70 1020.5
20260903122557 39 0 0.0 1.0 0.00 0.00 0.00 68 1020.4
20260903122057 39 0 0.0 1.0 0.00 0.00 0.00 71 1020.4
20260903121602 39 0 0.0 1.0 0.00 0.00 0.00 66 1020.6
20260903121057 40 0 0.0 1.0 0.00 0.00 0.00 68 1020.6
20260903120557 40 0 0.0 1.0 0.00 0.00 0.00 68 1020.5
20260903120130 40 0 0.0 1.0 0.00 0.00 0.00 67 1020.6
20260903115600 40 0 0.0 2.0 0.00 0.00 0.00 66 1020.5
20260903115058 40 0 0.0 2.0 0.00 0.00 0.00 63 1020.4
20260903114606 40 161 0.0 1.0 0.00 0.00 0.00 65 1020.4
20260903114100 41 165 0.0 1.0 0.00 0.00 0.00 63 1020.5
20260903113557 41 0 0.0 1.0 0.00 0.00 0.00 62 1020.4
20260903113105 41 246 0.0 2.0 0.00 0.00 0.00 65 1020.6
20260903112558 40 0 0.0 2.0 0.00 0.00 0.00 63 1020.6
20260903112058 41 0 0.0 2.0 0.00 0.00 0.00 62 1020.6
20260903111606 40 0 0.0 1.0 0.00 0.00 0.00 62 1020.6
20260903111057 41 0 0.0 1.0 0.00 0.00 0.00 61 1020.7
20260903110600 42 0 0.0 1.0 0.00 0.00 0.00 60 1020.7
20260903110104 42 0 0.0 1.0 0.00 0.00 0.00 59 1020.6
20260903105600 42 0 0.0 2.0 0.00 0.00 0.00 59 1020.6
20260903105100 41 188 0.0 2.0 0.00 0.00 0.00 60 1020.7
20260903104606 41 0 1.0 2.0 0.00 0.00 0.00 60 1020.9
20260903104058 41 0 0.0 1.0 0.00 0.00 0.00 59 1020.8
20260903103557 41 0 0.0 1.0 0.00 0.00 0.00 59 1021.0
20260903103106 41 163 0.0 0.0 0.00 0.00 0.00 60 1021.0
20260903102558 42 0 0.0 1.0 0.00 0.00 0.00 59 1020.9
20260903102057 42 0 0.0 1.0 0.00 0.00 0.00 59 1020.8
20260903101608 41 173 0.0 4.0 0.00 0.00 0.00 60 1020.9
20260903101057 41 184 1.0 4.0 0.00 0.00 0.00 60 1021.0
20260903100558 42 151 0.0 1.0 0.00 0.00 0.00 59 1021.0
20260903100106 41 0 0.0 1.0 0.00 0.00 0.00 60 1020.9
20260903095557 41 0 0.0 2.0 0.00 0.00 0.00 61 1020.9
20260903095101 41 235 0.0 2.0 0.00 0.00 0.00 61 1021.0
20260903094610 42 0 1.0 2.0 0.00 0.00 0.00 60 1021.1
20260903094058 42 0 0.0 3.0 0.00 0.00 0.00 59 1021.0
20260903093557 42 0 0.0 3.0 0.00 0.00 0.00 58 1021.0
20260903093110 43 165 0.0 1.0 0.00 0.00 0.00 58 1021.0
20260903092557 43 0 0.0 2.0 0.00 0.00 0.00 58 1021.2
20260903092058 43 0 0.0 2.0 0.00 0.00 0.00 58 1021.3
20260903091603 43 0 1.0 2.0 0.00 0.00 0.00 58 1021.4
20260903091058 43 142 0.0 1.0 0.00 0.00 0.00 59 1021.4
20260903090558 43 0 0.0 2.0 0.00 0.00 0.00 59 1021.5
20260903090108 43 0 0.0 2.0 0.00 0.00 0.00 60 1021.6
20260903085559 43 243 0.0 1.0 0.00 0.00 0.00 60 1021.7
20260903085057 43 0 0.0 1.0 0.00 0.00 0.00 61 1021.8
20260903084604 43 233 0.0 2.0 0.00 0.00 0.00 62 1021.7
20260903084103 42 0 0.0 3.0 0.00 0.00 0.00 62 1021.8
20260903083558 42 156 1.0 3.0 0.00 0.00 0.00 63 1021.9
20260903083115 43 164 0.0 2.0 0.00 0.00 0.00 61 1021.7
20260903082558 42 195 0.0 3.0 0.00 0.00 0.00 62 1021.8
20260903082058 42 229 0.0 3.0 0.00 0.00 0.00 62 1021.8
20260903081625 43 189 0.0 2.0 0.00 0.00 0.00 60 1021.7
20260903081057 43 0 0.0 2.0 0.00 0.00 0.00 62 1021.7
20260903080603 43 0 1.0 2.0 0.00 0.00 0.00 62 1021.7
20260903080104 43 201 0.0 2.0 0.00 0.00 0.00 62 1021.7
20260903075557 43 0 1.0 2.0 0.00 0.00 0.00 61 1021.7
20260903075058 43 177 0.0 2.0 0.00 0.00 0.00 61 1021.8
20260903074614 44 170 0.0 2.0 0.00 0.00 0.00 61 1021.8
20260903074058 44 0 0.0 2.0 0.00 0.00 0.00 61 1021.7
20260903073558 44 174 0.0 2.0 0.00 0.00 0.00 61 1021.7
20260903073136 44 0 0.0 1.0 0.00 0.00 0.00 60 1021.7
20260903072557 44 0 0.0 1.0 0.00 0.00 0.00 62 1021.8
20260903072058 44 0 0.0 2.0 0.00 0.00 0.00 61 1021.7